Longue distance Livernon 01/11/2010 - Kbis

Date : 01/11/2010

Place Nom Licence Catégorie Club Temps Points
1 DROIN Solène 17925 D14 4201AR 0:31:59 2887
2 VALETTE Marion 10430 D14 6913AR 0:35:02 2636
3 FOL Loreline 16393 D14 3105OC 0:35:05 2632
4 PICAZO Marie 16555 D14 8405PZ 0:35:23 2610
5 ELIAS Pauline 16137 D14 1307PZ 0:36:07 2557
6 MOLINIER Caroline 6487 D14 9105IF 0:36:45 2513
7 DELENNE Camilla 13800 D14 1307PZ 0:37:47 2444
8 BASSET Fiona 23384 D14 6911AR 0:38:23 2406
9 BEAUVIR Maëlle 12709 D14 3502BR 0:40:46 2265
10 BONDIVENNE Perrine 8914 D14 6408NA 0:41:22 2232
11 CHARDOT Marion 22315 D14 7807IF 0:42:43 2162
12 RIVOLLIER Isaline 22451 D14 4201AR 0:46:14 1997
13 ANGLADE Lucile 21188 D14 5604BR 0:47:06 1961
14 DAMIENS Audrey 23540 D14 6205HF 0:47:51 1930
15 MINET Clémence 23609 D16 6208HF 0:51:38 1788
16 ROCH Sophie 9996 D14 8202OC 0:52:50 1748
17 BESTEL Sandra 10758 D14 9105IF 0:54:37 1691
18 PEYRARD Julie 22991 D14 1104OC 0:56:04 1647
19 PRAT Charline 12609 D14 3408OC 1:05:08 1418
20 BULLIER Alisson 23427 D14 0207HF 1:06:50 1382
21 PELLETIER Mathilde 20022 D14 2105BF 1:11:40 1289
22 COTTRET Caroline 16272 D14 4604OC 1:12:00 1283
23 FERNANDEZ Lauriane 23668 D20 7807IF 1:15:17 1227
24 DELCUSE Julie 23595 D14 6205HF 1:16:46 1203
25 ROBART Blanche 23768 D14 6205HF 1:17:07 1197
PARENT Mathilde 22250 D14 6208HF pm 0
SCHIFANO Delphine 22224 D21 5402GE pm 0
CHAILLARD Dana 12045 D14 7305AR pm 0
BLUM Sylvain 13672 H55 5116GE pm 0